Location: Winnipeg
(49.8830°N, 97.1670°W)
Time: 04:35:39
(UTC-06:00)

ISS - Pass Details

Date: 27 January 2021
Orbit: 417 x 422 km, 51.6° (Epoch: 07 March)

Event Time Altitude Azimuth Distance (km) Brightness Sun altitude
Rises 18:44:37 0° 271° (W) 2,372 1.8 -14.3°
Reaches altitude 10° 18:46:44 10° 275° (W) 1,509 0.3 -14.6°
Maximum altitude 18:50:06 62° 358° (N) 479 -3.6 -15.2°
Enters shadow 18:51:20 34° 66° (ENE) 714 -3.1 -15.3°
